15min,AgWx,beryljct,423,23FEB2019:00:00:00,9.7,12.58,10.4,8.9,9.8,11.0,8.6,85,87,83,0.191,6.1,8.0,4.4,3.486,4.4,318,12,6.1,-0.00003,-0.00003,.,33.2,24,0,0,35.8,10.86,0.00,0.00
15min,AgWx,beryljct,423,23FEB2019:00:15:00,9.9,12.57,9.2,8.0,9.0,9.7,8.0,85,87,84,0.184,5.4,6.5,4.2,3.551,3.8,335,17,4.9,-0.00004,-0.00004,.,33.2,24,0,0,35.6,10.86,0.00,0.00
15min,AgWx,beryljct,423,23FEB2019:00:30:00,9.8,12.71,9.1,7.7,8.8,10.0,6.9,86,87,83,0.187,5.4,7.0,2.9,0.767,2.5,311,7.7,4.1,-0.00005,-0.00006,.,33.2,24,0,0,35.8,10.86,0.00,0.00
15min,AgWx,beryljct,423,23FEB2019:00:45:00,9.2,12.66,0.7,-0.3,3.2,7.9,-0.5,84,87,83,0.126,-0.5,4.8,-4.4,4.209,4.9,168,28,8.2,-0.00002,-0.00002,.,33.2,24,0,0,35.3,10.86,0.00,0.00
15min,AgWx,beryljct,423,23FEB2019:01:00:00,7.5,12.68,4.5,3.0,1.1,3.0,-0.3,86,88,84,0.153,-2.0,0.1,-4.0,4.297,4.3,193,6.0,5.0,-0.00002,-0.00002,.,33.2,24,0,0,35.7,10.86,0.00,0.00
15min,AgWx,beryljct,423,23FEB2019:01:15:00,6.7,12.67,5.3,4.4,4.0,5.1,3.0,88,89,87,0.163,1.2,2.5,-0.1,4.099,4.2,191,7.5,5.4,-0.00003,-0.00003,.,33.2,24,0,0,35.7,10.86,0.00,0.00
15min,AgWx,beryljct,423,23FEB2019:01:30:00,6.4,12.51,4.3,5.4,4.3,5.4,3.2,87,89,86,0.172,1.3,2.8,-0.1,3.464,3.5,198,9.2,4.1,-0.00004,-0.00004,.,33.2,24,0,0,35.5,10.86,0.00,0.00
15min,AgWx,beryljct,423,23FEB2019:01:45:00,6.2,12.5,4.6,5.9,5.5,8.5,3.7,88,91,85,0.171,2.7,6.2,0.2,2.258,4.1,242,12,5.1,-0.00003,-0.00003,.,33.2,24,0,0,35.6,10.86,0.00,0.00
15min,AgWx,beryljct,423,23FEB2019:02:00:00,6.1,12.64,2.4,3.0,4.6,5.6,3.0,87,88,85,0.149,1.5,2.2,-0.3,0,0.9,312,36,2.7,-0.00008,-0.00011,.,33.2,24,0,0,35.9,10.86,0.00,0.00
15min,AgWx,beryljct,423,23FEB2019:02:15:00,5.6,12.46,3.7,2.6,2.4,3.7,1.2,87,88,85,0.149,-0.7,0.9,-2.2,0.241,0.6,74,24,1.4,-0.00008,-0.00011,.,33.2,24,0,0,35.5,10.86,0.00,0.00
15min,AgWx,beryljct,423,23FEB2019:02:30:00,5.1,12.46,5.2,3.5,2.5,4.1,1.3,87,89,85,0.157,-0.5,1.5,-2.0,1.381,1.9,167,32,2.9,-0.00005,-0.00006,.,33.2,24,0,0,35.7,10.86,0.00,0.00
15min,AgWx,beryljct,423,23FEB2019:02:45:00,4.5,12.42,-2.6,-3.5,-0.0,5.2,-3.6,85,89,82,0.107,-3.5,2.6,-7.6,4.516,3.6,159,21,6.7,-0.00003,-0.00003,.,33.2,24,0,0,35.4,10.86,0.00,0.00
15min,AgWx,beryljct,423,23FEB2019:03:00:00,3.5,12.42,0.4,-1.1,-2.0,-0.6,-3.6,85,86,83,0.122,-5.5,-3.9,-7.4,3.025,4.2,173,4.1,5.2,-0.00002,-0.00002,.,33.2,24,0,0,35.7,10.86,0.00,0.00
15min,AgWx,beryljct,423,23FEB2019:03:15:00,2.7,12.56,-2.3,-2.3,-1.8,-0.5,-3.4,84,86,82,0.115,-5.4,-3.8,-7.4,1.008,2.2,182,11,3.2,-0.00004,-0.00004,.,33.2,25,0,0,35.7,10.86,0.00,0.00
15min,AgWx,beryljct,423,23FEB2019:03:30:00,1.9,12.55,-1.4,-2.4,-2.5,-2.0,-2.9,84,85,84,0.114,-6.1,-5.5,-6.6,0,0.8,184,0.1,1.4,-0.00006,-0.00008,.,33.2,24,0,0,35.6,10.86,0.00,0.00
15min,AgWx,beryljct,423,23FEB2019:03:45:00,1.2,12.52,-4.8,-5.7,-4.9,-2.4,-5.8,83,84,82,0.095,-8.8,-5.9,-9.8,0.548,0.3,247,0.1,1.2,-0.00007,-0.00010,.,33.2,24,0,0,35.7,10.86,0.00,0.00
15min,AgWx,beryljct,423,23FEB2019:04:00:00,0.2,12.51,-3.4,-4.9,-5.5,-4.9,-5.9,83,84,82,0.100,-9.4,-8.6,-9.8,0,0.2,247,0.1,1.2,-0.00007,-0.00011,.,33.2,24,0,0,35.6,10.86,0.00,0.00
15min,AgWx,beryljct,423,23FEB2019:04:15:00,-0.3,12.47,-4.0,-5.2,-5.5,-4.5,-6.3,83,84,82,0.099,-9.3,-8.2,-10.4,3.595,3.3,157,14,5.3,-0.00002,-0.00002,.,33.2,24,0,0,35.4,10.86,0.00,0.00
15min,AgWx,beryljct,423,23FEB2019:04:30:00,-0.6,12.46,-3.6,-4.5,-4.7,-4.1,-5.2,84,84,83,0.102,-8.4,-7.7,-9.0,2.696,3.7,182,3.8,4.2,-0.00002,-0.00002,.,33.2,24,0,0,35.7,10.86,0.00,0.00
15min,AgWx,beryljct,423,23FEB2019:04:45:00,-0.9,12.47,-3.2,-4.3,-4.7,-4.2,-5.1,83,84,83,0.103,-8.5,-7.9,-9.0,0.986,2.1,186,0.0,2.8,-0.00003,-0.00004,.,33.2,24,0,0,35.9,10.86,0.00,0.00
15min,AgWx,beryljct,423,23FEB2019:05:00:00,-1.2,12.42,-3.0,-4.9,-5.1,-4.1,-7.0,83,84,81,0.101,-9.0,-7.8,-11.2,3.442,1.5,227,54,3.6,-0.00004,-0.00005,.,33.2,24,0,0,35.5,10.86,0.00,0.00
15min,AgWx,beryljct,423,23FEB2019:05:15:00,-1.3,12.29,-5.6,-5.6,-4.9,-3.7,-5.7,83,85,82,0.096,-8.7,-7.2,-9.7,2.718,3.6,319,9.7,4.1,-0.00002,-0.00002,.,33.2,24,0,0,35.4,10.86,0.00,0.00
15min,AgWx,beryljct,423,23FEB2019:05:30:00,-1.6,12.26,-5.5,-6.4,-6.4,-5.3,-7.1,82,84,82,0.092,-10.4,-9.0,-11.3,3.924,2.1,46,33,3.9,-0.00003,-0.00004,.,33.2,24,0,0,35.7,10.86,0.00,0.00
15min,AgWx,beryljct,423,23FEB2019:05:45:00,-2.0,12.26,-5.6,-6.6,-6.5,-5.7,-7.0,82,83,82,0.091,-10.5,-9.5,-11.1,0.614,1.4,61,2.9,4.2,-0.00004,-0.00005,.,33.2,24,0,0,35.8,10.86,0.00,0.00
15min,AgWx,beryljct,423,23FEB2019:06:00:00,-2.5,12.29,-5.4,-6.0,-5.5,-4.4,-6.7,83,84,82,0.094,-9.4,-8.1,-10.7,0.153,0.1,64,0.0,0.8,-0.00007,-0.00011,.,33.2,24,0,0,35.8,10.86,0.00,0.00
15min,AgWx,beryljct,423,23FEB2019:06:15:00,-2.8,12.27,-4.6,-5.4,-5.4,-4.9,-6.0,83,84,82,0.097,-9.3,-8.6,-9.9,1.754,0.2,142,20,1.8,-0.00007,-0.00010,.,33.2,24,0,0,35.4,10.86,0.00,0.00
15min,AgWx,beryljct,423,23FEB2019:06:30:00,-3.0,12.3,-3.6,-4.7,-5.7,-4.7,-6.7,83,84,82,0.101,-9.6,-8.4,-10.8,0,0.9,174,0.1,1.9,0.00001,0.00002,.,33.2,24,0,0,35.8,10.86,0.00,0.00
15min,AgWx,beryljct,423,23FEB2019:06:45:00,-3.1,12.39,-5.7,-6.2,-4.6,-3.7,-6.2,83,84,82,0.092,-8.5,-7.3,-10.3,3.661,1.2,167,7.1,3.7,0.00001,0.00002,.,33.2,24,0,0,35.3,10.86,0.00,0.00
15min,AgWx,beryljct,423,23FEB2019:07:00:00,-3.1,12.39,-5.4,-6.1,-6.4,-5.6,-6.9,83,84,82,0.094,-10.3,-9.3,-11.0,3.617,3.2,182,0.1,3.9,0.00003,0.00004,.,33.2,24,0,0,35.6,10.86,0.00,0.00
15min,AgWx,beryljct,423,23FEB2019:07:15:00,-3.0,12.38,-2.6,-3.8,-4.9,-3.8,-6.3,84,85,83,0.107,-8.6,-7.3,-10.1,2.762,3.5,184,3.4,4.5,0.00003,0.00005,.,33.2,24,3,0,35.9,10.86,0.00,0.00
15min,AgWx,beryljct,423,23FEB2019:07:30:00,-2.8,12.45,-2.7,-3.3,-3.7,-2.7,-4.9,85,85,83,0.110,-7.2,-6.0,-8.6,3.639,3.2,185,1.1,3.6,0.00005,0.00007,.,33.2,25,21,0,35.8,10.86,0.00,0.00
15min,AgWx,beryljct,423,23FEB2019:07:45:00,-2.0,12.64,-1.8,-1.5,-0.8,0.6,-3.3,86,87,84,0.118,-4.0,-2.4,-6.7,3.179,3.5,184,9.3,4.0,0.00011,0.00014,.,33.2,24,65,0,35.9,10.86,0.00,0.00
15min,AgWx,beryljct,423,23FEB2019:08:00:00,-0.3,12.97,2.8,2.0,0.4,2.2,-2.0,86,87,84,0.144,-2.8,-0.9,-5.6,1.096,2.3,206,9.4,3.7,0.00017,0.00019,.,33.2,24,108,0,35.9,10.86,0.00,0.00
15min,AgWx,beryljct,423,23FEB2019:08:15:00,2.1,13.58,1.4,1.0,2.0,2.7,0.3,86,86,83,0.136,-1.3,-0.5,-3.6,2.959,2.5,160,23,3.6,0.00024,0.00027,.,33.2,24,156,0,35.5,10.85,0.00,0.00
15min,AgWx,beryljct,423,23FEB2019:08:30:00,4.2,14.94,2.3,2.4,1.5,2.6,0.2,85,86,84,0.145,-1.9,-0.8,-3.5,0,0.9,146,0.0,3.0,0.00032,0.00035,.,33.2,25,204,0,36.0,10.85,0.00,0.00
15min,AgWx,beryljct,423,23FEB2019:08:45:00,6.2,14.96,0.1,-0.4,-0.0,2.3,-0.9,84,85,83,0.125,-3.8,-1.1,-4.8,3.595,2.9,146,1.8,4.4,0.00035,0.00039,.,33.2,25,255,0,35.7,10.85,0.00,0.00
15min,AgWx,beryljct,423,23FEB2019:09:00:00,7.3,14.94,0.8,-0.0,-0.6,-0.0,-1.0,84,84,83,0.128,-4.3,-3.6,-4.8,2.762,2.7,145,0.2,3.8,0.00041,0.00046,.,33.2,26,307,0,35.7,10.85,0.00,0.00
15min,AgWx,beryljct,423,23FEB2019:09:15:00,8.9,14.96,3.5,2.9,1.7,2.9,0.0,85,86,84,0.148,-1.7,-0.4,-3.6,3.179,2.6,147,1.6,3.5,0.00052,0.00057,.,33.2,25,358,0,36.7,10.85,0.00,0.00
15min,AgWx,beryljct,423,23FEB2019:09:30:00,10.9,14.89,7.5,6.6,4.4,6.6,2.9,86,87,85,0.179,1.2,3.5,-0.6,3.836,3.4,139,6.3,4.2,0.00063,0.00069,.,33.2,25,408,0,37.0,10.85,0.00,0.00
15min,AgWx,beryljct,423,23FEB2019:09:45:00,13.3,14.88,9.9,9.4,8.3,9.4,6.6,87,87,87,0.203,5.3,6.3,3.6,3.836,3.5,114,6.5,4.2,0.00079,0.00086,.,33.2,25,455,0,41.3,10.85,0.00,0.00
15min,AgWx,beryljct,423,23FEB2019:10:00:00,15.8,14.92,11.6,11.1,10.1,11.1,9.4,87,87,86,0.216,6.9,7.8,6.3,3.354,3.8,112,13,4.5,0.00091,0.00099,.,33.2,24,500,0,43.3,10.85,0.00,0.00
15min,AgWx,beryljct,423,23FEB2019:10:15:00,17.7,14.9,13.0,12.4,11.9,12.4,11.2,84,86,82,0.219,7.9,8.2,7.7,5.48,5.0,129,5.9,6.3,0.00100,0.00110,.,33.2,25,542,0,42.6,10.85,0.00,0.00
15min,AgWx,beryljct,423,23FEB2019:10:30:00,19.1,14.91,15.1,14.3,13.4,14.3,12.5,82,82,81,0.234,8.8,9.5,8.1,4.998,5.8,129,5.9,6.7,0.00109,0.00122,.,33.2,24,580,0,41.3,10.85,0.00,0.00
15min,AgWx,beryljct,423,23FEB2019:10:45:00,20.4,14.9,15.9,15.6,15.0,15.6,14.3,81,81,80,0.247,10.1,10.6,9.5,5.897,5.8,113,4.4,6.7,0.00122,0.00136,.,33.2,25,616,0,43.1,10.85,0.00,0.00
15min,AgWx,beryljct,423,23FEB2019:11:00:00,21.5,14.9,17.1,16.6,16.1,16.7,15.6,80,80,79,0.254,11.0,11.6,10.5,6.16,6.3,118,6.0,7.3,0.00131,0.00146,.,33.2,25,648,0,42.8,10.85,0.00,0.00
15min,AgWx,beryljct,423,23FEB2019:11:15:00,22.8,14.46,18.2,17.8,17.2,17.9,16.6,79,80,77,0.262,11.8,12.5,11.3,4.582,4.9,126,4.7,6.3,0.00149,0.00164,.,33.2,25,675,0,48.4,10.85,0.00,0.00
15min,AgWx,beryljct,423,23FEB2019:11:30:00,24.3,14.48,19.1,19.0,18.4,19.0,17.8,77,78,75,0.270,12.5,13.0,11.9,4.582,4.2,114,8.4,5.1,0.00164,0.00181,.,33.2,24,700,0,52.7,10.85,0.00,0.00
15min,AgWx,beryljct,423,23FEB2019:11:45:00,25.8,14.54,20.6,20.0,19.5,20.1,19.0,75,76,73,0.271,12.8,13.4,12.2,3.924,4.7,115,7.8,5.7,0.00172,0.00190,.,33.1,24,720,0,52.5,10.85,0.00,0.00
15min,AgWx,beryljct,423,23FEB2019:12:00:00,27.2,14.4,21.4,20.8,20.6,20.9,20.0,72,74,71,0.279,13.1,13.8,12.8,4.516,4.4,107,9.1,5.3,0.00184,0.00204,.,33.2,24,736,0,53.9,10.85,0.00,0.01
15min,AgWx,beryljct,423,23FEB2019:12:15:00,28.3,14.39,22.9,22.3,21.7,22.4,20.8,71,73,67,0.275,13.6,14.4,13.1,3.113,3.9,97,5.8,5.2,0.00197,0.00218,.,33.1,25,748,0,55.2,10.85,0.00,0.00
15min,AgWx,beryljct,423,23FEB2019:12:30:00,29.7,14.4,24.6,24.1,23.3,24.1,22.3,65,68,62,0.277,13.2,14.4,12.7,3.573,3.5,114,6.3,4.3,0.00212,0.00236,.,33.1,25,755,0,59.8,10.85,0.00,0.00
15min,AgWx,beryljct,423,23FEB2019:12:45:00,31.2,14.33,25.5,25.3,24.7,25.4,24.1,63,65,62,0.296,14.1,15.4,13.0,2.674,2.8,125,7.9,3.7,0.00227,0.00251,.,33.1,24,760,0,64.1,10.85,0.00,0.00
15min,AgWx,beryljct,423,23FEB2019:13:00:00,32.8,14.28,26.5,26.3,25.7,26.3,25.3,64,65,63,0.307,15.1,16.1,14.5,3.223,3.0,155,4.8,3.8,0.00233,0.00258,.,33.2,24,765,0,63.1,10.84,0.00,0.00
15min,AgWx,beryljct,423,23FEB2019:13:15:00,34.5,14.22,27.9,27.7,26.8,27.8,26.3,65,67,63,0.341,16.8,18.2,15.3,3.047,2.3,147,5.0,3.2,0.00241,0.00265,.,33.1,24,758,0,64.8,10.85,0.00,0.00
15min,AgWx,beryljct,423,23FEB2019:13:30:00,35.9,14.2,29.6,29.2,28.4,29.2,27.7,64,67,62,0.352,17.8,18.8,17.2,4.932,4.0,143,4.3,5.0,0.00236,0.00264,.,33.1,24,749,0,60.9,10.84,0.00,0.00
15min,AgWx,beryljct,423,23FEB2019:13:45:00,36.7,14.19,31.4,30.9,30.3,30.9,29.2,60,65,55,0.349,18.0,19.1,16.4,8.29,6.0,144,4.6,9.0,0.00234,0.00270,.,33.1,24,735,0,54.3,10.84,0.00,0.00
15min,AgWx,beryljct,423,23FEB2019:14:00:00,37.2,14.18,32.5,32.2,31.6,32.2,31.0,60,62,57,0.381,19.1,20.7,18.4,3.858,5.6,142,5.3,9.2,0.00238,0.00275,.,33.1,24,719,0,53.0,10.85,0.00,0.00
15min,AgWx,beryljct,423,23FEB2019:14:15:00,38.0,14.14,34.2,33.9,33.2,33.9,32.2,52,62,47,0.311,17.5,20.6,15.9,5.546,6.2,137,7.0,8.2,0.00244,0.00288,.,33.1,24,699,0,52.6,10.84,0.00,0.00
15min,AgWx,beryljct,423,23FEB2019:14:30:00,39.0,14.12,35.6,35.2,34.4,35.2,33.7,47,54,41,0.289,16.3,19.0,13.5,4.034,4.5,136,6.9,7.2,0.00251,0.00293,.,33.1,24,678,0,55.7,10.84,0.00,0.00
15min,AgWx,beryljct,423,23FEB2019:14:45:00,40.4,14.23,37.0,37.2,36.6,37.6,35.2,33,45,21,0.196,9.6,16.7,1.3,4.209,4.5,230,47,9.1,0.00252,0.00303,.,33.1,24,626,0,54.5,10.84,0.00,0.00
15min,AgWx,beryljct,423,23FEB2019:15:00:00,41.4,14.07,38.2,37.5,37.4,37.9,36.9,26,34,20,0.170,5.3,11.5,0.7,7.015,7.7,267,10,11.7,0.00265,0.00340,.,33.1,24,624,0,48.7,10.84,0.00,0.00
15min,AgWx,beryljct,423,23FEB2019:15:15:00,41.7,14.09,37.8,36.9,37.2,37.7,36.9,27,33,21,0.210,6.2,10.5,1.2,7.717,9.3,268,9.2,12.5,0.00248,0.00329,.,33.1,24,571,0,45.5,10.84,0.00,0.00
15min,AgWx,beryljct,423,23FEB2019:15:30:00,41.6,14.08,37.0,37.2,36.8,37.2,36.3,38,52,28,0.221,13.0,20.4,6.8,6.27,6.4,218,24,10.1,0.00222,0.00278,.,33.1,24,548,0,45.3,10.84,0.00,0.00
15min,AgWx,beryljct,423,23FEB2019:15:45:00,41.8,14.15,36.6,36.7,36.9,37.2,36.6,31,35,26,0.236,8.7,11.5,5.3,12.5,7.4,268,14,12.5,0.00216,0.00281,.,33.1,24,506,0,44.7,10.84,0.00,0.00
15min,AgWx,beryljct,423,23FEB2019:16:00:00,41.4,14.18,37.0,36.7,36.6,36.9,36.1,29,33,26,0.211,7.6,9.8,5.4,9.93,11.6,262,5.7,14.8,0.00211,0.00296,.,33.1,24,462,0,41.8,10.84,0.00,0.00
15min,AgWx,beryljct,423,23FEB2019:16:15:00,40.8,14.18,36.4,36.1,36.5,37.0,36.1,30,34,24,0.230,7.7,10.8,3.9,10.33,11.3,247,9.0,14.0,0.00197,0.00279,.,33.1,24,417,0,41.1,10.84,0.00,0.00
15min,AgWx,beryljct,423,23FEB2019:16:30:00,40.3,14.12,36.4,36.1,36.2,36.5,35.7,30,35,28,0.204,7.9,10.8,6.0,8.9,9.8,255,4.3,11.8,0.00174,0.00248,.,33.1,25,370,0,40.4,10.84,0.00,0.00
15min,AgWx,beryljct,423,23FEB2019:16:45:00,39.9,14.18,36.3,35.9,36.0,36.3,35.6,31,35,28,0.225,8.4,10.6,6.3,6.949,8.6,250,8.5,11.1,0.00152,0.00219,.,33.1,24,322,0,39.8,10.83,0.00,0.00
15min,AgWx,beryljct,423,23FEB2019:17:00:00,39.4,14.1,36.5,35.5,35.6,35.9,35.1,33,35,30,0.233,9.2,10.5,7.6,6.204,6.7,250,7.9,8.7,0.00123,0.00177,.,33.1,24,272,0,40.0,10.83,0.00,0.00
15min,AgWx,beryljct,423,23FEB2019:17:15:00,38.9,14.12,34.8,34.4,35.0,35.6,34.3,34,38,31,0.247,9.2,11.1,7.9,3.332,4.7,250,14,7.4,0.00091,0.00131,.,33.1,24,223,0,38.7,10.83,0.00,0.00
15min,AgWx,beryljct,423,23FEB2019:17:30:00,38.3,14.18,35.4,34.8,34.5,35.2,33.7,47,53,37,0.335,16.1,19.0,10.5,10.52,7.8,200,17,12.0,0.00037,0.00044,.,33.1,24,172,0,38.0,10.83,0.00,0.00
15min,AgWx,beryljct,423,23FEB2019:17:45:00,37.6,14.18,33.9,33.7,34.5,35.0,33.7,50,52,47,0.342,17.5,18.1,16.8,8.66,10.4,206,5.5,14.7,0.00034,0.00039,.,33.1,24,126,0,36.9,10.83,0.00,0.00
15min,AgWx,beryljct,423,23FEB2019:18:00:00,36.3,13.47,32.8,32.1,32.6,33.6,31.9,56,59,53,0.359,18.7,19.2,18.1,7.322,6.8,202,5.8,10.0,0.00021,0.00025,.,33.1,24,82,0,35.2,10.83,0.00,0.00
15min,AgWx,beryljct,423,23FEB2019:18:15:00,34.4,13.16,30.1,29.9,31.3,32.2,29.9,59,62,57,0.348,18.7,19.2,18.2,6.642,7.3,182,9.3,9.8,0.00013,0.00016,.,33.1,24,14,0,35.4,10.84,0.01,0.00
15min,AgWx,beryljct,423,23FEB2019:18:30:00,32.2,13.09,29.0,28.5,29.0,29.9,28.4,65,66,62,0.350,18.5,18.9,18.3,8.02,7.6,177,6.6,9.5,0.00009,0.00011,.,33.1,24,4,0,35.3,10.84,0.00,0.00
15min,AgWx,beryljct,423,23FEB2019:18:45:00,30.4,13.06,28.3,28.2,28.3,28.5,28.0,65,67,64,0.335,18.1,18.6,17.5,7.322,7.9,179,4.4,9.6,0.00008,0.00011,.,33.1,24,0,0,35.4,10.84,0.00,0.00
15min,AgWx,beryljct,423,23FEB2019:19:00:00,29.3,13.04,27.2,27.0,27.8,28.4,27.0,65,66,63,0.327,17.4,17.7,17.1,9.1,8.3,169,4.7,10.0,0.00009,0.00011,.,33.1,24,0,0,35.7,10.84,0.00,0.00
15min,AgWx,beryljct,423,23FEB2019:19:15:00,28.3,13.03,27.5,26.8,26.8,27.0,26.4,66,67,65,0.324,17.0,17.2,16.7,7.607,9.0,162,8.2,10.5,0.00009,0.00011,.,33.1,24,0,0,35.7,10.84,0.00,0.00
15min,AgWx,beryljct,423,23FEB2019:19:30:00,27.5,12.87,26.4,26.1,26.1,26.9,25.8,68,69,66,0.323,17.0,17.3,16.7,8.15,8.0,186,5.7,9.3,0.00007,0.00009,.,33.1,24,0,0,35.6,10.84,0.00,0.00
15min,AgWx,beryljct,423,23FEB2019:19:45:00,26.7,12.98,27.2,26.5,25.8,26.5,25.4,68,70,65,0.318,16.8,17.1,16.3,8.57,8.0,190,6.6,9.5,0.00006,0.00009,.,33.1,24,0,0,35.7,10.84,0.00,0.00
15min,AgWx,beryljct,423,23FEB2019:20:00:00,26.4,12.98,24.9,24.9,26.0,26.5,24.9,65,66,65,0.303,16.0,16.4,15.3,7.804,8.0,199,13,9.0,0.00008,0.00010,.,33.1,24,0,0,35.5,10.84,0.00,0.00
15min,AgWx,beryljct,423,23FEB2019:20:15:00,26.1,12.97,26.0,25.0,24.9,25.9,23.5,67,70,65,0.309,15.6,16.6,14.4,8.09,8.0,171,7.5,9.6,0.00007,0.00009,.,33.1,24,0,0,35.7,10.85,0.01,0.00
15min,AgWx,beryljct,423,23FEB2019:20:30:00,25.7,12.94,24.4,24.4,25.0,25.4,24.4,67,67,66,0.302,15.4,15.7,15.0,7.673,8.4,198,12,9.9,0.00007,0.00010,.,33.1,24,0,0,35.7,10.85,0.00,0.00
15min,AgWx,beryljct,423,23FEB2019:20:45:00,25.3,12.95,25.4,24.2,23.9,24.4,23.4,69,71,67,0.309,15.3,15.8,15.0,9.51,8.7,201,6.4,10.1,0.00006,0.00008,.,33.1,24,0,0,35.7,10.85,0.00,0.00
15min,AgWx,beryljct,423,23FEB2019:21:00:00,25.1,12.94,25.5,24.7,24.7,24.8,24.2,67,70,66,0.301,15.2,15.8,14.9,8.11,8.2,204,3.9,9.6,0.00007,0.00009,.,33.1,24,0,0,35.5,10.85,0.00,0.00
15min,AgWx,beryljct,423,23FEB2019:21:15:00,24.9,12.92,23.9,23.0,24.4,25.6,22.9,67,71,64,0.300,14.9,15.5,14.0,7.958,7.1,187,13,8.2,0.00006,0.00008,.,33.1,24,0,0,35.5,10.85,0.00,0.00
15min,AgWx,beryljct,423,23FEB2019:21:30:00,24.4,12.92,22.1,21.9,22.8,24.5,21.5,71,74,66,0.295,14.8,15.5,14.3,6.401,6.9,188,7.8,8.7,0.00004,0.00005,.,33.1,24,0,0,35.6,10.85,0.00,0.00
15min,AgWx,beryljct,423,23FEB2019:21:45:00,23.4,12.9,21.9,20.9,20.4,21.9,19.5,75,77,73,0.287,13.8,14.6,12.9,5.941,7.3,186,9.1,9.7,0.00002,0.00003,.,33.1,24,0,0,35.5,10.85,0.00,0.00
15min,AgWx,beryljct,423,23FEB2019:22:00:00,22.4,12.9,21.5,20.3,20.0,21.3,18.8,76,79,73,0.292,13.5,14.6,12.3,4.823,5.1,181,4.5,6.8,-0.00001,0.00000,.,33.1,24,0,0,35.7,10.86,0.00,0.00
15min,AgWx,beryljct,423,23FEB2019:22:15:00,21.6,12.89,22.4,20.1,20.3,21.5,18.1,75,79,70,0.295,13.5,14.8,10.6,4.209,4.7,186,35,6.2,-0.00001,-0.00000,.,33.1,24,0,0,35.4,10.86,0.00,0.00
15min,AgWx,beryljct,423,23FEB2019:22:30:00,21.2,12.76,20.8,19.8,21.4,23.5,18.8,72,79,65,0.282,13.7,15.7,10.6,1.447,3.6,208,20,4.8,-0.00003,-0.00002,.,33.1,24,0,0,35.8,10.85,0.00,0.00
15min,AgWx,beryljct,423,23FEB2019:22:45:00,20.6,12.73,20.4,19.5,20.5,22.3,18.8,74,78,70,0.280,13.5,15.0,12.3,2.609,2.6,197,20,3.7,-0.00006,-0.00006,.,33.1,24,0,0,35.6,10.85,0.00,0.00
15min,AgWx,beryljct,423,23FEB2019:23:00:00,20.1,12.73,15.9,16.0,19.7,22.6,16.0,73,77,66,0.233,12.4,14.6,9.1,0,2.1,165,31,5.1,-0.00007,-0.00008,.,33.1,24,0,0,35.6,10.86,0.00,0.00
15min,AgWx,beryljct,423,23FEB2019:23:15:00,19.1,12.71,16.5,15.9,15.7,16.5,15.1,80,82,75,0.250,10.6,11.4,9.3,3.091,2.5,125,26,4.2,-0.00006,-0.00007,.,33.1,25,0,0,35.4,10.86,0.00,0.00
15min,AgWx,beryljct,423,23FEB2019:23:30:00,18.1,12.85,14.9,14.1,15.9,17.0,14.1,80,83,78,0.226,10.9,12.5,8.6,1.052,1.6,181,36,3.2,-0.00009,-0.00011,.,33.1,24,0,0,35.7,10.86,0.00,0.00
15min,AgWx,bigpiney,439,23FEB2019:00:00:00,-3.7,12.66,-9.2,-5.8,-7.0,-4.1,-8.8,81,86,77,0.095,-11.4,-7.3,-13.9,3.31,1.7,217,37,4.1,-0.00004,-0.00004,23.9,25.9,7,0,0,0.0,0.09,0.00,0.00
15min,AgWx,bigpiney,439,23FEB2019:00:15:00,-3.8,12.64,-10.6,-10.9,-8.9,-6.0,-10.9,77,83,75,0.067,-14.2,-9.9,-16.6,4.713,5.0,206,7.8,7.2,-0.00000,-0.00000,23.8,25.9,7,0,0,0.0,0.09,0.00,0.00
15min,AgWx,bigpiney,439,23FEB2019:00:30:00,-4.4,12.63,-9.3,-10.4,-10.8,-10.4,-11.2,75,75,75,0.069,-16.5,-16.1,-16.9,6.555,5.7,219,3.7,7.4,0.00000,0.00000,23.8,25.9,7,0,0,0.0,0.09,0.00,0.00
15min,AgWx,bigpiney,439,23FEB2019:00:45:00,-4.9,12.62,-7.2,-9.3,-8.5,-4.5,-10.3,77,82,74,0.074,-13.8,-8.6,-16.1,3.179,4.2,216,21,6.7,-0.00001,-0.00001,23.7,25.9,7,0,0,0.0,0.09,0.00,0.00
15min,AgWx,bigpiney,439,23FEB2019:01:00:00,-5.3,12.62,-11.2,-10.2,-9.1,-7.5,-10.4,78,80,76,0.070,-14.2,-12.1,-15.9,6.007,4.3,212,14,6.7,-0.00001,-0.00001,23.6,25.9,7,0,0,0.0,0.09,0.00,0.00
15min,AgWx,bigpiney,439,23FEB2019:01:15:00,-5.8,12.61,-11.6,-12.0,-10.8,-9.7,-12.0,77,79,75,0.065,-16.0,-14.3,-17.5,0,2.6,284,67,7.9,-0.00002,-0.00002,23.6,25.9,7,0,0,0.0,0.09,0.00,0.00
15min,AgWx,bigpiney,439,23FEB2019:01:30:00,-6.3,12.6,-5.9,-10.4,-12.6,-10.4,-13.8,78,80,77,0.074,-17.6,-14.8,-18.9,3.705,3.1,210,14,4.5,-0.00001,-0.00002,23.5,25.9,7,0,0,0.0,0.09,0.00,0.00
15min,AgWx,bigpiney,439,23FEB2019:01:45:00,-6.9,12.59,-12.7,-12.9,-11.2,-7.2,-14.0,77,82,71,0.063,-16.5,-12.0,-19.8,4.012,4.3,160,62,6.6,-0.00001,-0.00001,23.5,25.8,7,0,0,0.0,0.09,0.00,0.00
15min,AgWx,bigpiney,439,23FEB2019:02:00:00,-7.4,12.58,-12.0,-12.1,-12.4,-11.7,-13.3,76,77,75,0.063,-17.8,-16.8,-18.5,4.143,4.6,189,24,6.2,-0.00000,-0.00000,23.4,25.8,7,0,0,0.0,0.09,0.00,0.00
15min,AgWx,bigpiney,439,23FEB2019:02:15:00,-7.9,12.57,-13.0,-14.0,-13.8,-12.0,-14.9,74,76,73,0.058,-19.7,-17.8,-21.2,7.366,5.9,200,8.2,8.0,0.00000,0.00000,23.4,25.8,7,0,0,0.0,0.09,0.00,0.00
15min,AgWx,bigpiney,439,23FEB2019:02:30:00,-8.3,12.56,-11.8,-12.7,-13.9,-12.7,-14.6,75,76,74,0.061,-19.5,-18.3,-20.4,6.73,6.6,214,9.4,10.0,0.00000,0.00001,23.3,25.8,7,0,0,0.0,0.09,0.00,0.00
15min,AgWx,bigpiney,439,23FEB2019:02:45:00,-8.5,12.55,-10.7,-11.9,-12.0,-11.6,-12.7,74,75,73,0.062,-18.0,-17.7,-18.4,5.327,6.5,224,5.4,8.2,0.00000,0.00001,23.2,25.8,7,0,0,0.0,0.09,0.00,0.00
15min,AgWx,bigpiney,439,23FEB2019:03:00:00,-8.5,12.54,-11.6,-12.9,-12.5,-11.6,-13.5,73,74,72,0.060,-18.8,-17.9,-19.7,7.848,6.2,215,4.2,8.9,0.00000,0.00001,23.2,25.7,7,0,0,0.0,0.09,0.00,0.00
15min,AgWx,bigpiney,439,23FEB2019:03:15:00,-8.4,12.53,-12.0,-12.2,-11.7,-10.9,-12.8,73,75,73,0.061,-17.8,-16.9,-18.8,5.568,5.8,223,4.9,8.1,0.00000,0.00001,23.1,25.7,7,0,0,0.0,0.09,0.00,0.00
15min,AgWx,bigpiney,439,23FEB2019:03:30:00,-8.5,12.52,-13.2,-13.9,-12.9,-12.1,-14.0,73,74,72,0.057,-19.1,-18.3,-20.3,5.985,5.9,226,7.2,8.5,0.00000,0.00001,23.0,25.7,7,0,0,0.0,0.09,0.00,0.00
15min,AgWx,bigpiney,439,23FEB2019:03:45:00,-8.7,12.51,-14.4,-14.6,-11.9,-5.1,-14.6,74,81,69,0.053,-17.9,-9.5,-21.2,7.585,5.4,230,23,7.6,0.00000,0.00000,23.0,25.7,7,0,0,0.0,0.09,0.00,0.00
15min,AgWx,bigpiney,439,23FEB2019:04:00:00,-9.1,12.5,-13.6,-14.3,-14.3,-13.9,-14.8,75,76,72,0.057,-20.1,-19.4,-21.1,6.423,7.2,206,4.3,8.4,0.00001,0.00001,22.9,25.7,7,0,0,0.0,0.09,0.00,0.00
15min,AgWx,bigpiney,439,23FEB2019:04:15:00,-9.4,12.49,-12.4,-13.2,-14.2,-13.2,-14.9,75,76,74,0.059,-19.9,-18.8,-20.7,6.642,7.2,209,4.2,9.3,0.00001,0.00001,22.9,25.6,7,0,0,0.0,0.09,0.00,0.00
15min,AgWx,bigpiney,439,23FEB2019:04:30:00,-9.5,12.48,-11.2,-11.3,-11.7,-10.8,-13.2,74,75,72,0.063,-17.8,-17.0,-19.0,7.738,8.0,223,7.3,11.3,0.00001,0.00001,22.8,25.6,7,0,0,0.0,0.09,0.00,0.00
15min,AgWx,bigpiney,439,23FEB2019:04:45:00,-9.3,12.47,-9.4,-10.9,-11.5,-10.9,-12.2,72,73,72,0.065,-18.0,-17.3,-18.7,5.524,7.0,225,8.8,10.5,0.00001,0.00001,22.8,25.5,7,0,0,0.0,0.09,0.00,0.00
15min,AgWx,bigpiney,439,23FEB2019:05:00:00,-9.1,12.45,-6.7,-7.9,-9.4,-7.9,-10.8,71,73,70,0.073,-16.3,-14.9,-17.4,6.357,6.0,238,8.6,9.5,0.00001,0.00001,22.7,25.5,7,0,0,0.0,0.09,0.00,0.00
15min,AgWx,bigpiney,439,23FEB2019:05:15:00,-8.7,12.45,-10.8,-10.1,-8.5,-7.6,-10.1,69,71,68,0.064,-15.9,-14.7,-17.7,4.187,5.2,241,6.8,6.9,0.00000,0.00001,22.6,25.4,7,0,0,0.0,0.09,0.00,0.00
15min,AgWx,bigpiney,439,23FEB2019:05:30:00,-8.5,12.44,-13.5,-13.1,-11.0,-10.1,-13.1,71,72,68,0.057,-17.9,-16.9,-19.9,6.796,3.0,255,34,6.8,-0.00001,-0.00001,22.6,25.5,7,0,0,0.0,0.09,0.00,0.00
15min,AgWx,bigpiney,439,23FEB2019:05:45:00,-8.7,12.43,-12.2,-13.1,-13.0,-12.5,-13.5,73,74,70,0.059,-19.2,-18.5,-20.2,1.622,5.0,233,27,8.3,-0.00000,0.00000,22.6,25.4,7,0,0,0.0,0.09,0.00,0.00
15min,AgWx,bigpiney,439,23FEB2019:06:00:00,-9.0,12.41,-12.3,-13.4,-13.3,-12.9,-13.8,74,75,73,0.058,-19.3,-18.6,-19.8,3.223,3.5,232,17,4.9,-0.00001,-0.00001,22.5,25.3,7,0,0,0.0,0.09,0.00,0.00
15min,AgWx,bigpiney,439,23FEB2019:06:15:00,-9.4,12.41,-9.1,-11.1,-12.9,-11.1,-13.6,74,76,73,0.067,-18.8,-16.6,-19.7,4.889,5.1,245,8.8,6.8,-0.00000,0.00000,22.4,25.3,7,0,0,0.0,0.09,0.00,0.00
15min,AgWx,bigpiney,439,23FEB2019:06:30:00,-9.6,12.4,-5.0,-7.3,-9.8,-7.3,-11.0,76,79,74,0.084,-15.4,-12.3,-17.1,6.555,5.2,236,4.1,6.9,-0.00000,0.00000,22.4,25.2,7,0,0,0.0,0.09,0.00,0.00
15min,AgWx,bigpiney,439,23FEB2019:06:45:00,-9.5,12.39,-10.1,-9.6,-8.3,-6.9,-9.7,76,78,74,0.070,-13.9,-11.9,-15.7,3.31,5.1,241,6.9,7.2,-0.00000,-0.00000,22.3,25.2,7,0,0,0.0,0.09,0.00,0.00
15min,AgWx,bigpiney,439,23FEB2019:07:00:00,-9.4,12.38,-11.4,-12.4,-12.0,-9.7,-13.2,75,77,74,0.065,-17.7,-15.8,-18.9,1.6,2.9,265,63,6.0,-0.00001,-0.00001,22.3,25.3,7,1,0,0.0,0.09,0.00,0.00
15min,AgWx,bigpiney,439,23FEB2019:07:15:00,-9.5,12.53,-9.4,-11.8,-11.1,-10.4,-12.4,78,79,76,0.065,-16.1,-15.2,-17.4,2.368,1.6,207,46,3.5,-0.00003,-0.00003,22.2,25.2,7,11,0,0.0,0.09,0.00,0.00
15min,AgWx,bigpiney,439,23FEB2019:07:30:00,-9.4,15,-11.2,-11.7,-12.1,-10.7,-12.9,76,77,75,0.066,-17.5,-15.8,-18.6,3.858,2.1,234,30,5.6,-0.00003,-0.00002,22.2,25.2,7,41,0,0.0,0.09,0.00,0.00
15min,AgWx,bigpiney,439,23FEB2019:07:45:00,-9.1,14.99,-10.1,-11.0,-11.5,-10.9,-12.3,76,77,76,0.068,-16.9,-16.2,-17.8,2.389,3.8,228,18,5.8,0.00002,0.00004,22.2,25.1,7,77,0,0.0,0.09,0.00,0.00
15min,AgWx,bigpiney,439,23FEB2019:08:00:00,-8.7,14.97,-13.6,-13.2,-13.1,-10.8,-15.0,77,80,74,0.063,-18.3,-16.1,-20.7,2.017,2.5,288,25,4.4,0.00003,0.00004,22.1,25.1,7,93,0,0.0,0.09,0.00,0.00
15min,AgWx,bigpiney,439,23FEB2019:08:15:00,-7.8,15.09,-5.7,-7.3,-9.8,-7.3,-13.7,79,80,78,0.085,-14.5,-12.0,-18.6,4.253,2.6,261,14,5.2,0.00012,0.00014,22.1,25.0,7,176,0,0.0,0.09,0.00,0.00
15min,AgWx,bigpiney,439,23FEB2019:08:30:00,-6.0,14.98,-4.7,-4.6,-5.8,-4.1,-7.1,78,79,76,0.093,-11.0,-9.5,-12.6,0,3.2,225,16,5.6,0.00020,0.00024,22.0,25.1,7,223,0,0.0,0.09,0.00,0.00